Change the Weather History Date:

Saturday, March 16, 2013

  Actual Average Record
Temperature  
Mean Temperature 68 °F 51 °F  
Max Temperature 79 °F 63 °F 83 °F (1945)
Min Temperature 56 °F 39 °F 18 °F (1970)
Degree Days  
Heating Degree Days 0 14  
Month to date heating degree days 307 256  
Since 1 July heating degree days 2712 2955  
Cooling Degree Days 3 0  
Month to date cooling degree days 3 0  
Year to date cooling degree days 3 0  
Growing Degree Days 16 (Base 50)    
Moisture  
Dew Point 41 °F    
Average Humidity 43    
Maximum Humidity 57    
Minimum Humidity 28    
Precipitation  
Precipitation 0.00 in 0.13 in 1.84 in (1923)
Month to date precipitation 1.42 2.16  
Year to date precipitation 9.17 8.89  
Snow  
Snow 0.00 in 0.00 in T in (1978)
Month to date snowfall T 0.4  
Since 1 July snowfall 2.7 4.1  
Snow Depth 0.00 in    
Sea Level Pressure  
Sea Level Pressure 29.82 in    
Wind  
Wind Speed 12 mph (SW)    
Max Wind Speed 23 mph    
Max Gust Speed 36 mph    
Visibility 10 miles    
Events      
T = Trace of Precipitation, MM = Missing Value Source: NWS Daily Summary

Daily Weather History Graph

Daily Weather History Graph

Search for Another Location

Airport or City:

Trip Planner

Search our weather history database for the weather conditions in past years. The results will help you decide how hot, cold, wet, or windy it might be!

Date:

Astronomy

Mar. 16, 2013 Rise Set
Actual Time 7:32 AM EDT 7:32 PM EDT
Civil Twilight 7:07 AM EDT 7:57 PM EDT
Nautical Twilight 6:38 AM EDT 8:27 PM EDT
Astronomical Twilight 6:08 AM EDT 8:57 PM EDT
Moon 10:12 AM EDT (3/16) No Moon Set
Length of Visible Light 12h 50m
Length of Day
11h 59m
Waxing Crescent, 23% of the Moon is Illuminated
Mar 16
Waxing Crescent
Mar 19
First Quarter
Mar 27
Full
Apr 3
Last Quarter
Apr 10
New

Hourly Weather History & Observations

Time (EDT) Temp. Dew Point Humidity Pressure Visibility Wind Dir Wind Speed Gust Speed Precip Events Conditions
12:52 AM 59.0 °F 39.0 °F 48% 29.89 in 10.0 mi SW 9.2 mph - N/A   Scattered Clouds
1:52 AM 55.9 °F 39.0 °F 53% 29.87 in 10.0 mi SSW 8.1 mph - N/A   Clear
2:52 AM 57.0 °F 39.9 °F 53% 29.87 in 10.0 mi SW 9.2 mph - N/A   Scattered Clouds
3:52 AM 57.9 °F 41.0 °F 53% 29.86 in 10.0 mi WSW 10.4 mph - N/A   Mostly Cloudy
4:52 AM 57.9 °F 41.0 °F 53% 29.85 in 10.0 mi SW 10.4 mph - N/A   Scattered Clouds
5:52 AM 57.0 °F 41.0 °F 55% 29.85 in 10.0 mi SW 10.4 mph - N/A   Mostly Cloudy
6:52 AM 57.0 °F 42.1 °F 57% 29.87 in 10.0 mi SW 8.1 mph - N/A   Overcast
7:52 AM 57.9 °F 42.1 °F 56% 29.87 in 10.0 mi SW 11.5 mph 18.4 mph N/A   Overcast
8:52 AM 60.1 °F 42.1 °F 51% 29.87 in 10.0 mi SW 10.4 mph - N/A   Overcast
9:52 AM 63.0 °F 42.1 °F 46% 29.87 in 10.0 mi SW 15.0 mph 20.7 mph N/A   Overcast
10:52 AM 64.0 °F 42.1 °F 45% 29.86 in 10.0 mi SW 13.8 mph 20.7 mph N/A   Overcast
11:52 AM 69.1 °F 44.1 °F 40% 29.84 in 10.0 mi SW 11.5 mph 20.7 mph N/A   Overcast
12:52 PM 72.0 °F 43.0 °F 35% 29.81 in 10.0 mi SW 17.3 mph 24.2 mph N/A   Scattered Clouds
1:52 PM 77.0 °F 44.1 °F 31% 29.79 in 10.0 mi SSW 16.1 mph 23.0 mph N/A   Mostly Cloudy
2:52 PM 78.1 °F 43.0 °F 29% 29.76 in 10.0 mi SW 12.7 mph 25.3 mph N/A   Mostly Cloudy
3:52 PM 79.0 °F 43.0 °F 28% 29.74 in 10.0 mi WSW 12.7 mph 19.6 mph N/A   Mostly Cloudy
4:52 PM 77.0 °F 43.0 °F 30% 29.73 in 10.0 mi WSW 18.4 mph 25.3 mph N/A   Mostly Cloudy
5:52 PM 77.0 °F 42.1 °F 29% 29.73 in 10.0 mi SW 17.3 mph 26.5 mph N/A   Mostly Cloudy
6:52 PM 73.9 °F 39.9 °F 29% 29.74 in 10.0 mi SW 19.6 mph 35.7 mph N/A   Mostly Cloudy
7:52 PM 72.0 °F 39.9 °F 31% 29.77 in 10.0 mi SW 9.2 mph - N/A   Mostly Cloudy
8:52 PM 71.1 °F 39.9 °F 32% 29.79 in 10.0 mi WSW 10.4 mph - N/A   Mostly Cloudy
9:52 PM 69.1 °F 39.9 °F 35% 29.83 in 10.0 mi SW 9.2 mph - N/A   Mostly Cloudy
10:52 PM 68.0 °F 39.9 °F 36% 29.85 in 10.0 mi WSW 5.8 mph - N/A   Mostly Cloudy
11:52 PM 64.0 °F 39.9 °F 41% 29.86 in 10.0 mi WSW 4.6 mph - N/A   Partly Cloudy